[[{"header":{"parameterUnit":"m.s-1","parameterCategory":1,"la1":30.2991,"la2":30.254,"lo1":-89.0895,"lo2":-89.0444,"dy":0.0017,"dx":0.0017,"nx":28,"ny":28,"refTime":"2023-10-03T21:00:00:Z","depth":0,"parameterNumber":2,"parameterNumberName":"U-component_of_WINDS"},"data":[0,0,0,0,0,0,0,0,0,0,0,0,0,0,0,0,0,0,0,0,0,0,0,0,0,0,0,0,0,0,0,0,0,0,0,0,0,0,0,0,0,0,0,0,0,0,0,0,0,0,0,0,0,0,0,0,0,0,-3.5735,-3.5735,0,-3.5777,-3.5777,-3.5777,-3.5761,-3.576,-3.5759,-3.5758,-3.5798,-3.58,-3.5802,0,0,0,0,0,0,0,0,0,0,0,0,0,-3.564,-3.5642,-3.5735,-3.5735,-3.5736,-3.5776,-3.5777,-3.5778,-3.5761,-3.576,-3.5759,-3.5757,-3.5797,-3.58,-3.5802,0,0,0,0,0,0,0,0,0,0,0,0,0,-3.5681,-3.5642,-3.5735,-3.5733,-3.5733,-3.5776,-3.5777,-3.5778,-3.5761,-3.576,-3.5758,-3.5757,-3.5796,-3.5799,-3.5802,-3.585,0,0,-3.5811,-3.5813,0,0,0,0,0,0,0,0,-3.5679,-3.5685,-3.5732,-3.5733,-3.5733,-3.5762,-3.5758,-3.5802,-3.5761,-3.575,-3.5758,-3.5756,-3.5787,-3.5791,-3.5802,-3.5852,-3.5853,-3.5812,-3.5813,-3.5815,-3.5815,0,0,0,0,0,0,0,-3.5676,-3.5683,-3.5751,-3.5733,-3.5734,-3.5729,-3.5733,-3.5766,-3.5776,-3.5751,-3.575,-3.5755,-3.5787,-3.5799,-3.5802,-3.5854,-3.5811,-3.5814,-3.5816,-3.5817,-3.5946,-3.5947,0,0,0,0,0,0,-3.5673,-3.5681,-3.575,-3.5752,-3.5702,-3.5732,-3.5737,-3.5754,-3.5776,-3.5778,-3.5757,-3.5754,-3.5794,-3.5799,-3.5804,-3.586,-3.5815,-3.5817,-3.5819,-3.5944,-3.5946,-3.5948,0,0,0,0,0,0,-3.5671,-3.568,-3.5748,-3.5716,-3.5725,-3.5735,-3.5755,-3.5756,-3.5767,-3.578,-3.5781,-3.5767,-3.5793,-3.5799,-3.5839,-3.5861,-3.5819,-3.5821,-3.5942,-3.5945,-3.5947,-3.5974,0,0,0,0,0,0,-3.5669,-3.5679,-3.5697,-3.5717,-3.5727,-3.5783,-3.5756,-3.5758,-3.5773,-3.5771,-3.579,-3.5792,-3.5793,-3.5834,-3.5842,-3.5865,-3.5824,-3.594,-3.5943,-3.5946,-3.5971,-3.5977,-3.5983,0,0,0,0,0,-3.5665,-3.5702,-3.5698,-3.5707,-3.5749,-3.5784,-3.5789,-3.5791,-3.5775,-3.5793,-3.5801,-3.5791,-3.5859,-3.5839,-3.5847,-3.5871,-3.5939,-3.5943,-3.5946,-3.5969,-3.5976,-3.5982,0,0,0,0,0,0,-3.5683,-3.5705,-3.57,-3.5745,-3.5763,-3.5781,-3.5804,-3.5798,-3.582,-3.5817,-3.5817,-3.5822,-3.5862,-3.5871,-3.5848,-3.5919,-3.5896,-3.5902,-3.5911,-3.5918,-3.5923,-3.5919,-3.5826,0,0,0,0,0,-3.5693,-3.572,-3.5737,-3.5775,-3.5784,-3.5793,-3.5808,-3.5808,-3.5826,-3.5833,-3.5844,-3.5862,-3.5887,-3.5903,-3.5927,-3.5974,-3.5977,-3.5995,-3.6,-3.6005,-3.6009,-3.6034,-3.6042,-3.596,-3.596,-3.596,0,0,-3.5712,-3.5727,-3.5744,-3.5779,-3.5793,-3.582,-3.5799,-3.5829,-3.5849,-3.5837,-3.5875,-3.5884,-3.5904,-3.5947,-3.5967,-3.5956,-3.6033,-3.601,-3.6013,-3.6015,-3.6039,-3.6047,-3.6053,-3.5963,-3.5962,-3.5962,0,0,-3.576,-3.5775,-3.5808,-3.5823,-3.5845,-3.5851,-3.586,-3.588,-3.5885,-3.5924,-3.5916,-3.594,-3.5984,-3.5998,-3.6011,-3.6069,-3.606,-3.6077,-3.6105,-3.613,-3.6136,-3.6142,-3.6161,-3.6168,-3.6081,-3.6081,-3.6081,0,-3.5781,-3.5822,-3.5826,-3.5856,-3.5872,-3.5865,-3.5898,-3.5913,-3.5941,-3.5952,-3.594,-3.5996,-3.6008,-3.6055,-3.6069,-3.6081,-3.6089,-3.6073,-3.6135,-3.6141,-3.6146,-3.6165,-3.6172,-3.6083,-3.6083,-3.6083,-3.6083,0,-3.5846,-3.5875,-3.5899,-3.5928,-3.5947,-3.5979,-3.5987,-3.6006,-3.6005,-3.6012,-3.6052,-3.6068,-3.6095,-3.6107,-3.6105,-3.6154,-3.6146,-3.6135,-3.6112,-3.6156,-3.6173,-3.618,-3.6086,-3.6085,-3.6084,-3.6084,0,0,-3.5903,-3.5936,-3.5945,-3.5958,-3.5984,-3.6006,-3.6038,-3.6066,-3.6082,-3.6103,-3.6129,-3.6168,-3.6159,-3.6174,-3.6174,-3.6197,-3.6241,-3.6183,-3.6183,-3.6192,-3.6294,-3.6301,-3.6309,-3.6236,-3.6238,-3.6239,-3.6292,0,-3.5952,-3.6009,-3.6014,-3.6065,-3.6092,-3.6088,-3.6116,-3.6135,-3.6143,-3.6167,-3.6177,-3.6204,-3.619,-3.6199,-3.6221,-3.623,-3.6261,-3.6227,-3.626,-3.6261,-3.6252,-3.6318,-3.6325,-3.6374,-3.6299,-3.63,-3.6301,0,-3.6016,-3.604,-3.6094,-3.6117,-3.6129,-3.6154,-3.6181,-3.6204,-3.6226,-3.6231,-3.6249,-3.6248,-3.6281,-3.626,-3.6305,-3.6282,-3.6297,-3.6304,-3.6306,-3.6307,-3.6282,-3.6319,-3.6389,-3.6396,-3.6312,-3.6311,-3.631,0,-3.6051,-3.6097,-3.6136,-3.6148,-3.6176,-3.6194,-3.6206,-3.6227,-3.6244,-3.6267,-3.6278,-3.6306,-3.632,-3.6341,-3.6347,-3.6331,-3.6392,-3.6371,-3.6396,-3.6396,-3.6407,-3.6406,-3.6479,-3.642,-3.642,-3.642,-3.642,0,-3.6104,-3.6137,-3.6152,-3.6175,-3.6212,-3.6219,-3.6255,-3.6267,-3.6285,-3.6311,-3.6309,-3.6333,-3.6341,-3.6366,-3.6371,-3.6408,-3.6415,-3.6419,-3.6419,-3.6418,-3.6417,-3.6425,-3.6421,-3.6422,-3.6421,-3.6421,-3.6421,0,-3.6147,-3.6159,-3.62,-3.6225,-3.6232,-3.6258,-3.6278,-3.6301,-3.6311,-3.6343,-3.6351,-3.6366,-3.6396,-3.6405,-3.644,-3.6444,-3.6487,-3.6485,-3.6479,-3.6479,-3.6503,-3.65,-3.6582,-3.6592,-3.6529,-3.6529,-3.653,0,-3.6179,-3.6204,-3.6232,-3.625,-3.6263,-3.6291,-3.6309,-3.6318,-3.6336,-3.6365,-3.6384,-3.6414,-3.6438,-3.6486,-3.6499,-3.6527,-3.6525,-3.6552,-3.6529,-3.6527,-3.6524,-3.6521,-3.6523,-3.6555,-3.6556,-3.6556,-3.6557,0,-3.6234,-3.6239,-3.6265,-3.6294,-3.6316,-3.6339,-3.6361,-3.6375,-3.6387,-3.6409,-3.644,-3.6459,-3.6497,-3.6526,-3.6555,-3.6567,-3.6564,-3.6565,-3.6572,-3.6569,-3.6564,-3.6566,-3.6489,-3.6562,-3.6561,-3.6561,-3.6561,-3.6561,-3.6271,-3.6294,-3.6317,-3.6347,-3.6365,-3.6386,-3.6409,-3.6423,-3.6449,-3.6481,-3.6485,-3.6518,-3.6541,-3.6579,-3.6594,-3.662,-3.6612,-3.6622,-3.6625,-3.6627,-3.6628,-3.6562,-3.6626,-3.6625,-3.6625,-3.6625,-3.6625,0,-3.6324,-3.634,-3.6368,-3.64,-3.6423,-3.6421,-3.6446,-3.6465,-3.6495,-3.6517,-3.6542,-3.6578,-3.6608,-3.6625,-3.6654,-3.6672,-3.6671,-3.6679,-3.6677,-3.668,-3.6634,-3.6624,-3.6679,-3.6679,-3.6679,-3.6679,-3.6679,-3.6679,-3.6355,-3.6393,-3.6401,-3.6449,-3.6464,-3.6498,-3.6512,-3.6532,-3.655,-3.6591,-3.6616,-3.6627,-3.6648,-3.6679,-3.6706,-3.671,-3.6721,-3.6729,-3.6732,-3.6689,-3.6683,-3.6677,-3.6668,-3.6732,-3.6732,-3.6776,-3.6776,-3.6777]},{"header":{"parameterUnit":"m.s-1","parameterCategory":1,"la1":30.2991,"la2":30.254,"lo1":-89.0895,"lo2":-89.0444,"dy":0.0017,"dx":0.0017,"nx":28,"ny":28,"refTime":"2023-10-03T21:00:00:Z","depth":0,"parameterNumber":3,"parameterNumberName":"V-component_of_WINDS"},"data":[0,0,0,0,0,0,0,0,0,0,0,0,0,0,0,0,0,0,0,0,0,0,0,0,0,0,0,0,0,0,0,0,0,0,0,0,0,0,0,0,0,0,0,0,0,0,0,0,0,0,0,0,0,0,0,0,0,0,2.9444,2.9444,0,2.9431,2.9431,2.9431,2.9445,2.9446,2.9447,2.9447,2.9429,2.9428,2.9427,0,0,0,0,0,0,0,0,0,0,0,0,0,2.948,2.9479,2.9444,2.9444,2.9444,2.9431,2.9431,2.9431,2.9445,2.9446,2.9447,2.9447,2.9429,2.9428,2.9427,0,0,0,0,0,0,0,0,0,0,0,0,0,2.9465,2.9479,2.9444,2.945,2.945,2.9431,2.9431,2.9431,2.9445,2.9446,2.9447,2.9448,2.943,2.9428,2.9427,2.9401,0,0,2.9422,2.9422,0,0,0,0,0,0,0,0,2.9466,2.9464,2.9449,2.9449,2.945,2.9441,2.9437,2.942,2.9445,2.9447,2.9447,2.9448,2.9432,2.943,2.9426,2.94,2.9399,2.9422,2.9421,2.9421,2.942,0,0,0,0,0,0,0,2.9467,2.9464,2.9439,2.9449,2.9449,2.9452,2.9451,2.9434,2.9435,2.9447,2.9448,2.9446,2.9432,2.9427,2.9426,2.9399,2.9422,2.9421,2.942,2.9419,2.9353,2.9352,0,0,0,0,0,0,2.9468,2.9465,2.9439,2.9439,2.946,2.9451,2.945,2.9443,2.9435,2.9435,2.9446,2.9447,2.9429,2.9427,2.9425,2.9395,2.9421,2.9419,2.9418,2.9354,2.9353,2.9352,0,0,0,0,0,0,2.9468,2.9465,2.944,2.9452,2.9449,2.9449,2.9442,2.9442,2.9437,2.9434,2.9434,2.9441,2.943,2.9427,2.9407,2.9395,2.9418,2.9417,2.9355,2.9353,2.9352,2.9334,0,0,0,0,0,0,2.9469,2.9465,2.9456,2.9452,2.9449,2.9423,2.9441,2.9441,2.9435,2.9437,2.9429,2.9429,2.943,2.941,2.9406,2.9393,2.9416,2.9356,2.9354,2.9353,2.9336,2.9333,2.933,0,0,0,0,0,2.9471,2.945,2.9455,2.9452,2.9437,2.9422,2.942,2.9424,2.9434,2.9424,2.9423,2.9429,2.9397,2.9407,2.9403,2.939,2.9357,2.9355,2.9353,2.9337,2.9333,2.933,0,0,0,0,0,0,2.9449,2.9449,2.9455,2.9433,2.9428,2.9425,2.9412,2.9419,2.941,2.9411,2.9415,2.9413,2.9393,2.9389,2.9401,2.9365,2.9378,2.9376,2.9368,2.9364,2.9361,2.9362,2.9415,0,0,0,0,0,2.9443,2.9432,2.9432,2.9412,2.941,2.9412,2.9405,2.9409,2.9403,2.9401,2.9398,2.9391,2.938,2.9372,2.9361,2.9336,2.9335,2.9325,2.9322,2.9319,2.9317,2.9305,2.9301,2.9345,2.9345,2.9345,0,0,2.9427,2.9426,2.9419,2.9408,2.9404,2.9393,2.9409,2.9396,2.9388,2.9398,2.938,2.9378,2.9371,2.9349,2.9339,2.9346,2.9305,2.9317,2.9315,2.9313,2.9303,2.9298,2.9295,2.9344,2.9344,2.9345,0,0,2.9394,2.9392,2.9376,2.9373,2.9369,2.9371,2.9367,2.9364,2.9364,2.9346,2.9355,2.9345,2.9324,2.932,2.9315,2.9284,2.9289,2.928,2.9263,2.9251,2.9248,2.9245,2.9235,2.9231,2.9277,2.9277,2.9277,0,2.9375,2.9359,2.9367,2.9354,2.9349,2.9361,2.9345,2.9342,2.9333,2.933,2.9337,2.9315,2.931,2.9289,2.9282,2.9277,2.9273,2.928,2.9248,2.9245,2.9242,2.9232,2.9228,2.9276,2.9276,2.9276,2.9276,0,2.9337,2.9326,2.9314,2.9308,2.9303,2.9288,2.9293,2.9286,2.9291,2.9292,2.9275,2.9271,2.9261,2.9256,2.926,2.9235,2.924,2.9248,2.9261,2.9237,2.9228,2.9224,2.9275,2.9275,2.9275,2.9276,0,0,2.9288,2.9289,2.9284,2.9283,2.9281,2.9272,2.9259,2.9251,2.9245,2.924,2.9229,2.9213,2.9222,2.9216,2.922,2.921,2.9187,2.9219,2.9219,2.9214,2.9162,2.9156,2.9151,2.9192,2.9191,2.919,2.9162,0,2.9255,2.9234,2.9241,2.9219,2.921,2.9222,2.9211,2.9208,2.921,2.9202,2.9203,2.9192,2.9204,2.9201,2.9192,2.9192,2.9177,2.9194,2.9181,2.9181,2.9182,2.9146,2.9139,2.9113,2.9159,2.9158,2.9158,0,2.9213,2.9209,2.9187,2.9189,2.9185,2.9175,2.917,2.9162,2.9159,2.9161,2.9157,2.9163,2.915,2.9165,2.9147,2.9159,2.9155,2.9154,2.9153,2.9152,2.9167,2.9144,2.9104,2.91,2.9152,2.9152,2.9153,0,2.9181,2.9169,2.9155,2.9153,2.9155,2.9148,2.9148,2.9146,2.9142,2.9137,2.9135,2.9127,2.9123,2.9118,2.9123,2.9132,2.9105,2.9119,2.9106,2.9106,2.9098,2.9099,2.9058,2.9096,2.9096,2.9096,2.9096,0,2.9143,2.9129,2.9141,2.9132,2.9117,2.9126,2.9111,2.9112,2.9111,2.9103,2.9113,2.9105,2.9112,2.9104,2.9107,2.9093,2.9091,2.9092,2.9093,2.9091,2.9091,2.9088,2.909,2.9095,2.9095,2.9095,2.9096,0,2.9103,2.9111,2.9096,2.91,2.9101,2.909,2.9093,2.9085,2.9088,2.9078,2.9075,2.908,2.9072,2.9077,2.9068,2.907,2.9052,2.9056,2.9053,2.9054,2.9041,2.9043,2.8996,2.8991,2.9033,2.9032,2.9032,0,2.9079,2.9069,2.9073,2.9069,2.9069,2.9062,2.9059,2.9068,2.9064,2.9062,2.9054,2.9048,2.9043,2.9029,2.9031,2.9025,2.9029,2.9013,2.9027,2.9027,2.9029,2.903,2.9029,2.901,2.9009,2.9009,2.9008,0,2.9035,2.904,2.9035,2.9033,2.9029,2.9027,2.9025,2.9021,2.9031,2.9026,2.9019,2.9015,2.9008,2.9001,2.8996,2.8996,2.9004,2.9004,2.9001,2.8999,2.8998,2.8999,2.9046,2.9005,2.9005,2.9005,2.9006,2.9006,2.9003,2.8995,2.8998,2.8993,2.8993,2.8992,2.8986,2.899,2.8985,2.8981,2.8986,2.8978,2.8978,2.8973,2.8972,2.8966,2.8972,2.8967,2.8965,2.8964,2.8963,2.9,2.8965,2.8965,2.8965,2.8965,2.8965,0,2.896,2.8963,2.8959,2.8958,2.8954,2.8965,2.8964,2.896,2.8953,2.8954,2.895,2.8943,2.8937,2.894,2.8936,2.893,2.8934,2.8928,2.8929,2.8929,2.8957,2.8961,2.8926,2.8926,2.8926,2.8926,2.8926,2.8926,2.8937,2.8926,2.8932,2.8921,2.8924,2.8917,2.8917,2.8916,2.8917,2.8909,2.8905,2.8908,2.891,2.8906,2.8901,2.8903,2.89,2.8894,2.8896,2.8922,2.8926,2.893,2.8934,2.8893,2.8893,2.8869,2.8869,2.8868]}]]